{"data":{"norad_id":52480,"epoch":"2026-05-25T01:39:42.818112Z","epoch_age_seconds":72274,"freshness":"FRESH","line1":"1 52480U 22049AF  26145.06924558 -.00000656  00000+0 -23132-4 0  9996","line2":"2 52480  53.2155  76.2371 0001508  86.4423 273.6742 15.08844604223782","mean_motion":15.08844604,"eccentricity":0.0001508,"inclination_deg":53.2155,"raan_deg":76.2371,"arg_perigee_deg":86.4423,"mean_anomaly_deg":273.6742,"bstar":-2.3132e-5,"rev_number":22378,"period_min":95.437263465204,"perigee_km":538.68610217323,"apogee_km":540.77253065426,"semimajor_km":6917.8663164137,"source":"CELESTRAK","updated_at":"2026-05-25T13:38:17.155463Z"}}